Temp
12 11 11 11 11 11 11 11 11 11 11 11 11 11 11 12 12 12 12 12 12 12 12 13 13 13 13 12 12 12 12 12 12 12 12 12 13 13 12 12 12 12 12 12 12 12 12 11 11 11 11 12 12 12 11 11 11 10 10 10 10 10 10 10 10 10 10 10 10
11 11 11 11 10 10 10 10 10 11 11 11 11 11 11 11 11 11 12 12 12 12 12 12 12 12 12 12 12 12 12 12 12 12 12 12 12 12 12 12 12 12 12 12 12 12 11 11 11 11 11 11 11 11 11 11 11 10 10 10 10 10 10 10 10 10 10 10 10
10 10 10 10 10 10 10 10 10 10 10 10 10 10 10 10 11 11 11 11 11 11 11 11 11 11 11 11 11 11 12 12 12 12 12 12 12 12 12 12 12 12 12 12 12 12 11 11 11 11 11 11 11 11 10 10 10 10 10 10 10 10 10 10 10 10 10 10 10
10 10 10 10 9 9 9 9 9 9 10 10 10 10 10 10 10 10 10 11 11 11 11 11 11 11 11 11 11 11 11 11 11 12 12 12 12 12 12 12 12 12 12 12 11 11 11 11 11 11 11 11 11 10 10 10 10 10 10 10 10 10 10 9 9 9 10 10 10
10 9 9 9 9 9 9 9 9 9 9 9 9 10 10 10 10 10 10 10 10 10 10 10 10 11 11 11 11 11 11 11 11 11 11 11 11 11 11 11 11 11 11 11 11 11 11 11 11 11 11 10 10 10 10 10 10 10 10 10 10 9 9 9 9 9 9 9 10
9 9 9 9 9 9 9 9 9 9 9 9 9 9 9 10 10 10 10 10 10 10 10 10 10 10 10 10 10 11 11 10 10 11 11 11 11 11 11 11 11 11 11 10 11 11 11 11 11 10 10 10 10 10 10 10 10 10 10 10 9 9 9 9 9 9 9 9 9
9 9 9 8 8 8 8 8 8 9 9 9 9 9 9 9 9 9 10 10 10 10 10 10 10 10 10 10 10 10 10 10 10 10 10 10 11 11 11 11 11 11 10 10 11 11 11 11 11 10 10 10 10 10 10 10 9 9 10 10 9 9 9 9 9 9 9 9 9
8 8 8 8 8 8 8 8 8 8 8 9 9 9 9 9 9 9 9 9 9 9 9 9 9 9 9 9 9 9 9 9 10 10 10 10 10 10 10 10 10 10 10 10 10 11 11 11 10 10 10 10 10 10 10 9 9 9 9 9 9 9 9 9 8 8 8 8 8
8 8 8 8 8 8 8 8 8 8 8 8 9 9 9 9 9 9 9 9 9 9 9 9 9 9 9 9 9 9 9 10 10 10 10 10 10 10 10 10 10 10 10 10 10 10 10 10 10 10 10 10 10 10 10 9 9 9 9 9 9 9 8 8 8 8 8 8 7
7 7 7 7 7 7 8 8 8 8 8 8 8 9 9 9 9 9 9 9 9 9 9 9 9 9 9 9 9 9 9 9 10 10 10 10 10 10 10 10 10 10 10 10 10 10 10 10 10 10 10 10 10 10 10 10 9 9 9 8 8 8 8 8 8 8 7 7 7
7 7 7 7 7 7 7 7 8 8 8 8 8 8 8 8 9 9 9 9 9 9 9 9 9 9 9 9 9 9 9 9 10 10 10 10 10 10 10 10 10 10 10 10 10 10 10 10 10 10 10 10 10 10 10 9 9 9 9 8 8 8 8 8 8 7 7 7 7
7 7 7 7 7 7 7 7 7 8 8 8 8 8 8 8 8 9 9 9 9 9 9 9 9 9 9 9 9 9 9 10 10 10 10 10 10 10 10 10 10 10 10 10 10 10 10 10 10 10 10 10 10 10 10 9 9 9 9 9 8 8 8 8 7 7 7 7 7
6 6 6 7 7 7 7 7 7 7 7 8 8 8 8 8 8 8 8 9 9 9 9 9 9 9 9 9 9 9 9 9 10 10 10 10 10 10 10 10 10 10 10 10 10 10 10 10 10 10 10 10 10 10 10 10 10 9 9 9 8 8 7 7 7 7 7 7 7
6 6 6 6 6 6 7 7 7 7 7 7 7 8 8 8 8 8 8 8 8 8 9 9 9 9 9 9 9 9 9 9 9 9 9 10 10 10 10 10 10 10 10 10 10 10 10 10 10 10 10 10 10 10 10 10 9 9 9 8 8 8 7 7 7 7 7 7 6
6 6 6 6 6 6 6 6 7 7 7 7 7 7 8 8 8 8 8 8 8 8 8 8 8 9 9 9 9 9 9 9 9 9 9 9 9 9 9 10 10 10 10 10 10 10 10 10 10 10 9 9 9 9 9 9 9 9 8 8 8 7 7 7 7 7 6 6 6
6 6 6 6 6 6 6 6 6 6 7 7 7 7 7 7 8 8 8 8 8 8 8 8 8 8 8 8 9 9 9 9 9 9 9 9 9 9 9 9 9 9 9 9 9 9 9 9 9 9 9 9 9 9 8 8 8 8 8 7 7 7 7 7 7 6 6 6 6
6 6 6 6 6 6 6 6 6 6 6 6 7 7 7 7 7 7 8 8 8 8 8 8 8 8 8 8 8 8 8 8 8 8 8 8 8 8 9 9 9 9 9 9 9 9 9 9 9 9 8 8 8 8 8 8 7 7 7 7 7 7 6 6 6 6 6 6 6
5 6 6 6 6 6 6 6 6 6 6 6 6 7 7 7 7 7 7 7 8 8 8 8 8 8 8 8 8 8 8 8 8 8 8 8 8 8 8 8 8 8 8 8 8 8 8 8 8 8 8 8 7 7 7 7 7 6 6 6 6 6 6 6 6 6 6 5 5
5 5 6 6 6 6 6 6 6 6 6 6 6 6 7 7 7 7 7 7 7 7 7 7 8 8 8 8 8 8 8 8 8 8 8 8 8 8 8 7 7 7 7 7 7 7 7 7 7 7 7 6 6 6 6 6 6 6 6 6 6 6 6 6 6 6 5 5 5
5 5 5 5 5 5 5 6 6 6 6 6 6 6 6 6 6 7 7 7 7 7 7 7 7 7 7 8 8 8 8 8 8 8 8 7 7 7 7 7 7 7 7 7 7 7 6 6 6 6 6 5 5 5 5 5 5 5 5 5 5 5 5 5 5 5 5 5 4
5 5 5 5 5 5 5 5 5 5 5 5 5 6 6 6 6 6 6 6 7 7 7 7 7 7 7 7 7 8 8 8 8 7 7 7 7 7 6 6 7 7 6 6 6 6 6 5 5 5 5 5 5 5 5 5 5 5 5 5 5 5 5 5 5 4 4 4 4
5 5 5 5 5 5 5 5 5 5 5 5 5 5 6 6 6 6 6 6 6 6 7 7 7 7 7 7 7 7 7 7 7 7 7 7 6 6 6 6 6 6 6 6 5 5 5 5 5 5 5 5 5 5 5 5 5 5 5 5 5 5 4 4 4 4 4 4 4
5 5 5 5 5 5 5 5 5 5 5 5 5 5 5 5 6 6 6 6 6 6 6 6 6 7 7 7 7 7 7 7 7 7 6 6 6 6 6 6 6 6 5 5 5 5 5 5 5 5 5 5 5 5 5 5 5 5 5 5 4 4 4 4 4 4 4 4 4
4 4 4 4 4 4 4 5 5 5 5 5 5 5 5 5 5 6 6 6 6 6 6 6 6 6 6 6 6 7 7 6 6 6 6 6 6 6 6 6 5 5 5 5 5 5 5 5 5 5 5 5 5 5 5 5 4 4 4 4 4 4 4 4 4 4 3 3 3
4 4 4 4 4 4 4 4 4 4 4 4 4 5 5 5 5 5 5 5 6 6 6 6 6 6 6 6 6 6 6 6 6 6 6 6 6 6 6 5 5 5 5 5 5 5 5 5 5 5 5 5 4 4 4 4 4 4 4 4 4 4 3 3 3 3 3 3 3
4 4 4 4 4 4 4 4 4 4 4 4 4 4 4 4 5 5 5 5 5 5 5 5 5 5 6 6 6 6 6 5 5 6 6 6 5 5 5 5 5 5 5 5 5 5 5 5 4 4 4 4 4 4 4 4 4 3 3 3 3 3 3 3 3 3 3 3 2
3 3 3 3 3 3 3 3 3 3 3 3 3 3 4 4 4 4 4 4 5 5 5 5 5 5 5 5 5 5 5 5 5 5 5 5 5 5 5 5 5 5 5 5 5 4 4 4 4 4 4 3 3 3 3 3 3 3 3 3 3 3 3 3 3 2 2 2 2
3 3 3 3 3 3 3 2 2 2 2 2 3 3 3 3 3 4 4 4 4 4 4 4 4 5 5 5 5 5 5 5 5 5 5 5 5 5 5 5 5 5 4 4 4 4 4 3 3 3 3 3 3 3 3 3 3 3 3 3 3 3 3 2 2 2 2 2 2
2 2 2 2 2 2 2 2 1 1 1 2 2 2 3 3 3 3 3 3 3 4 4 4 4 4 4 4 4 4 5 5 5 5 5 5 5 5 5 5 4 4 4 4 4 3 3 3 3 3 3 3 3 3 3 3 3 3 3 3 3 2 2 2 2 2 2 2 2
2 2 2 2 1 1 1 1 0 0 1 1 2 2 2 2 3 3 3 3 3 3 3 4 4 4 4 4 4 4 4 4 4 4 4 4 4 4 4 4 4 4 3 3 3 3 3 3 2 2 2 2 2 3 3 3 3 3 3 2 2 2 2 2 2 2 2 2 2
1 1 1 0 -0 -0 -0 -0 -0 0 1 1 1 2 2 2 3 3 3 3 3 3 3 3 3 3 4 4 4 4 4 4 4 4 4 4 4 4 4 4 3 3 3 3 3 2 2 2 2 2 2 3 3 3 3 3 3 3 3 2 2 2 2 2 2 2 2 2 2
1 0 -0 -1 -1 -1 -1 -0 -0 0 0 1 1 2 2 2 2 2 3 3 3 3 3 3 3 3 3 3 3 3 3 4 4 4 3 3 3 3 3 3 3 3 3 3 2 2 2 2 2 3 3 3 3 3 3 3 3 3 3 3 2 2 2 2 2 2 2 2 2
0 -0 -1 -1 -1 -1 -1 -1 -0 -0 0 0 1 2 2 2 2 2 2 2 3 3 3 3 3 3 3 3 3 3 3 3 3 3 3 3 3 3 3 3 3 3 2 2 2 2 3 3 3 3 3 3 3 3 3 3 3 3 3 3 2 2 2 2 2 2 2 1 1
-0 -1 -1 -1 -2 -1 -1 -1 -1 -0 -0 0 1 2 2 2 2 2 2 2 2 2 2 2 2 2 2 2 2 3 3 3 3 3 3 2 2 2 2 2 2 2 2 2 3 3 3 3 3 3 3 3 3 3 3 3 3 3 3 2 2 2 2 2 2 2 1 1 1
-1 -1 -2 -2 -2 -2 -2 -1 -1 -0 -0 0 1 2 2 2 2 2 2 2 2 2 2 2 2 2 2 2 2 2 2 2 2 2 2 2 2 2 2 2 2 3 3 3 3 3 3 3 3 3 3 3 3 3 3 3 3 2 2 2 2 2 2 2 1 1 1 1 1
-1 -1 -2 -2 -2 -2 -2 -2 -1 -1 -0 0 1 2 2 2 2 2 2 2 2 2 2 2 2 2 2 2 2 2 2 2 2 2 2 2 2 2 2 3 3 3 3 3 3 3 3 3 3 3 3 3 3 3 2 2 2 2 2 2 2 2 2 1 1 1 1 0 0
-1 -1 -2 -2 -2 -2 -2 -2 -1 -1 -0 0 1 1 2 2 2 1 1 1 1 1 1 1 1 1 1 2 2 2 2 2 2 2 2 2 2 2 3 3 3 3 3 3 3 3 3 3 3 3 3 2 2 2 2 2 2 2 2 2 2 1 1 1 1 1 0 0 -0
-1 -1 -2 -2 -2 -2 -2 -2 -1 -0 0 0 0 1 1 1 1 1 1 1 1 1 1 1 1 1 1 1 2 2 2 2 2 2 2 2 2 3 3 3 3 3 3 3 3 3 3 3 2 2 2 2 2 2 2 2 2 2 1 1 1 1 1 0 0 0 -0 -0 -0
-0 -1 -1 -2 -2 -2 -2 -2 -1 -0 -0 -0 0 1 1 1 1 1 1 1 1 1 1 1 1 1 1 1 1 2 2 2 2 2 2 2 3 3 3 3 3 3 3 3 3 3 2 2 2 2 2 2 2 2 2 1 1 1 1 1 0 0 -0 -0 -0 -1 -1 -1 -1
0 0 -0 -1 -1 -2 -2 -1 -1 -0 -0 -0 -0 0 0 1 1 1 1 1 1 1 1 1 1 1 1 1 2 2 2 2 2 2 2 2 3 3 3 3 3 3 3 3 2 2 2 2 2 2 2 2 1 1 1 1 0 0 0 -0 -0 -0 -1 -1 -1 -1 -1 -1 -1
0 0 0 -0 -1 -1 -1 -1 -1 -0 0 0 0 0 0 0 1 1 1 1 1 1 1 1 1 1 1 2 2 2 2 2 2 2 2 2 3 3 3 2 2 2 2 2 2 2 2 2 2 1 1 1 1 0 0 0 -0 -0 -0 -0 -1 -1 -1 -1 -1 -2 -2 -2 -2
Height
1518 1518 1518 1518 1518 1518 1518 1518 1518 1518 1518 1518 1517 1517 1517 1517 1517 1517 1517 1517 1517 1517 1517 1517 1517 1517 1517 1517 1517 1518 1518 1518 1518 1518 1518 1519 1519 1519 1519 1520 1520 1520 1521 1521 1522 1522 1522 1521 1522 1522 1522 1522 1523 1523 1523 1524 1524 1524 1525 1526 1526 1526 1526 1526 1526 1526 1527 1527 1527
1517 1517 1517 1517 1516 1516 1516 1516 1516 1516 1516 1516 1516 1516 1516 1516 1516 1516 1516 1516 1516 1516 1516 1516 1516 1516 1516 1516 1516 1516 1517 1517 1517 1517 1518 1518 1518 1518 1518 1519 1519 1519 1520 1520 1521 1520 1520 1520 1521 1521 1521 1521 1521 1521 1522 1522 1523 1524 1524 1524 1525 1525 1525 1525 1525 1525 1526 1526 1525
1516 1516 1515 1515 1515 1515 1515 1515 1515 1515 1515 1515 1515 1515 1515 1515 1515 1515 1515 1515 1515 1515 1515 1515 1515 1515 1515 1515 1515 1515 1516 1516 1516 1516 1517 1517 1517 1518 1518 1518 1518 1519 1519 1519 1519 1519 1519 1520 1520 1520 1520 1520 1520 1520 1521 1522 1522 1523 1523 1523 1523 1524 1524 1524 1524 1524 1524 1524 1524
1514 1514 1514 1514 1514 1514 1514 1514 1514 1514 1514 1514 1514 1514 1514 1514 1514 1514 1514 1514 1514 1514 1514 1514 1514 1514 1514 1514 1514 1515 1515 1515 1515 1516 1516 1516 1516 1517 1517 1518 1518 1518 1518 1518 1518 1519 1519 1519 1519 1519 1519 1519 1519 1520 1520 1521 1521 1522 1522 1522 1522 1523 1523 1523 1523 1523 1523 1522 1522
1513 1513 1513 1513 1513 1513 1513 1513 1513 1513 1513 1513 1513 1513 1513 1513 1513 1513 1513 1513 1513 1513 1513 1513 1513 1513 1513 1514 1514 1514 1514 1514 1514 1515 1515 1515 1516 1516 1517 1517 1517 1517 1517 1518 1518 1518 1518 1518 1518 1518 1518 1519 1519 1520 1520 1520 1520 1520 1520 1520 1520 1521 1521 1521 1521 1521 1521 1520 1520
1512 1512 1512 1512 1512 1512 1512 1512 1512 1512 1512 1513 1513 1513 1513 1513 1513 1513 1513 1513 1513 1513 1513 1513 1513 1513 1513 1513 1513 1513 1513 1513 1514 1514 1514 1514 1515 1515 1516 1516 1516 1516 1516 1517 1517 1517 1517 1516 1516 1517 1518 1518 1518 1519 1519 1519 1519 1519 1519 1519 1519 1519 1519 1519 1519 1519 1519 1519 1519
1511 1511 1511 1511 1511 1511 1511 1511 1512 1512 1512 1512 1512 1512 1512 1512 1512 1512 1512 1512 1512 1512 1512 1512 1512 1512 1512 1512 1512 1512 1513 1513 1513 1513 1513 1514 1514 1514 1515 1515 1515 1515 1515 1516 1516 1517 1516 1516 1516 1517 1517 1517 1518 1518 1518 1518 1518 1518 1518 1518 1518 1518 1518 1518 1518 1518 1518 1518 1518
1510 1510 1510 1510 1510 1510 1510 1511 1511 1511 1511 1511 1511 1511 1511 1511 1511 1511 1511 1511 1511 1511 1511 1511 1512 1512 1512 1512 1512 1512 1512 1512 1513 1513 1513 1513 1513 1514 1514 1514 1514 1514 1514 1515 1515 1515 1515 1515 1515 1516 1516 1516 1517 1517 1517 1517 1517 1517 1517 1517 1517 1518 1518 1517 1517 1517 1517 1517 1517
1508 1509 1509 1509 1509 1509 1509 1510 1510 1510 1510 1510 1510 1510 1510 1510 1510 1511 1511 1511 1511 1511 1511 1511 1511 1511 1511 1512 1512 1512 1512 1512 1512 1512 1512 1512 1513 1513 1513 1513 1513 1513 1513 1514 1514 1514 1514 1514 1514 1515 1515 1515 1516 1516 1516 1516 1516 1516 1516 1516 1516 1516 1516 1516 1516 1516 1516 1516 1516
1507 1508 1508 1508 1508 1508 1508 1509 1509 1509 1509 1509 1509 1509 1510 1510 1510 1510 1510 1510 1510 1510 1510 1510 1511 1511 1511 1511 1511 1511 1511 1511 1511 1511 1512 1512 1512 1512 1512 1512 1513 1513 1513 1513 1513 1513 1513 1513 1513 1514 1514 1514 1514 1515 1515 1515 1515 1515 1514 1514 1514 1514 1514 1514 1514 1514 1514 1514 1514
1506 1506 1507 1507 1507 1507 1508 1508 1508 1508 1508 1508 1508 1508 1509 1509 1509 1509 1509 1509 1509 1509 1509 1510 1510 1510 1510 1510 1510 1510 1510 1511 1511 1511 1511 1511 1511 1511 1511 1512 1512 1512 1512 1512 1513 1513 1513 1513 1513 1513 1513 1513 1513 1513 1513 1513 1513 1513 1513 1513 1513 1513 1513 1513 1513 1513 1512 1512 1512
1505 1505 1505 1506 1506 1506 1506 1507 1507 1507 1507 1507 1507 1508 1508 1508 1508 1508 1508 1508 1508 1508 1508 1509 1509 1509 1509 1509 1509 1509 1510 1510 1510 1510 1510 1510 1510 1510 1510 1511 1511 1511 1511 1511 1511 1511 1511 1511 1511 1511 1511 1511 1512 1512 1512 1512 1511 1511 1511 1511 1511 1511 1511 1511 1511 1511 1511 1511 1511
1503 1504 1504 1504 1505 1505 1505 1505 1505 1505 1506 1506 1506 1506 1506 1506 1507 1507 1507 1507 1507 1507 1508 1508 1508 1508 1508 1508 1508 1508 1508 1508 1508 1508 1509 1509 1509 1509 1509 1509 1510 1510 1510 1510 1510 1510 1510 1510 1510 1510 1510 1510 1510 1510 1510 1510 1510 1510 1510 1510 1509 1509 1509 1509 1509 1509 1509 1509 1509
1502 1502 1503 1503 1503 1504 1504 1504 1504 1504 1504 1504 1505 1505 1505 1505 1505 1505 1506 1506 1506 1506 1506 1506 1507 1507 1507 1507 1507 1507 1507 1507 1507 1507 1508 1508 1508 1508 1508 1508 1508 1508 1508 1508 1508 1508 1508 1508 1508 1508 1508 1508 1508 1508 1508 1508 1508 1508 1508 1508 1508 1508 1508 1508 1508 1508 1508 1508 1508
1500 1501 1501 1502 1502 1502 1503 1503 1503 1503 1503 1503 1503 1503 1503 1504 1504 1504 1504 1505 1505 1505 1505 1505 1505 1505 1505 1506 1506 1506 1506 1506 1506 1506 1506 1506 1506 1506 1507 1507 1507 1507 1507 1507 1507 1507 1507 1507 1507 1507 1507 1507 1507 1506 1506 1506 1506 1506 1506 1506 1506 1506 1506 1506 1506 1506 1506 1506 1506
1499 1499 1500 1500 1500 1501 1501 1501 1502 1502 1502 1502 1502 1502 1502 1503 1503 1503 1503 1503 1503 1503 1503 1504 1504 1504 1504 1504 1504 1505 1505 1505 1505 1505 1505 1505 1505 1505 1505 1505 1505 1505 1505 1505 1505 1505 1505 1505 1505 1505 1505 1505 1505 1505 1504 1504 1504 1504 1504 1504 1504 1504 1504 1505 1505 1504 1504 1504 1504
1497 1498 1498 1498 1499 1499 1499 1500 1500 1500 1500 1500 1500 1500 1501 1501 1501 1502 1502 1502 1502 1502 1502 1502 1503 1503 1503 1503 1503 1503 1503 1503 1503 1503 1503 1503 1503 1503 1504 1504 1504 1504 1504 1504 1504 1504 1504 1504 1504 1504 1503 1503 1503 1503 1503 1503 1503 1503 1503 1503 1503 1503 1503 1503 1503 1503 1503 1503 1503
1496 1496 1496 1497 1497 1498 1498 1498 1498 1498 1498 1499 1499 1499 1499 1500 1500 1500 1500 1500 1501 1501 1501 1501 1501 1501 1501 1501 1501 1502 1502 1502 1502 1502 1502 1502 1502 1502 1502 1502 1502 1502 1502 1503 1503 1503 1502 1502 1502 1502 1502 1502 1502 1502 1502 1502 1502 1502 1502 1502 1502 1502 1502 1502 1503 1503 1503 1503 1503
1494 1494 1495 1495 1496 1496 1496 1496 1497 1497 1497 1497 1498 1498 1498 1498 1499 1499 1499 1499 1499 1499 1499 1499 1500 1500 1500 1500 1500 1500 1500 1501 1501 1501 1501 1501 1501 1501 1501 1501 1501 1501 1501 1501 1501 1501 1501 1501 1501 1501 1501 1501 1501 1501 1501 1501 1501 1501 1501 1501 1501 1501 1502 1502 1502 1502 1502 1502 1502
1493 1493 1493 1494 1494 1494 1494 1495 1495 1495 1496 1496 1496 1496 1497 1497 1497 1498 1498 1498 1498 1498 1498 1498 1498 1498 1498 1498 1499 1499 1499 1499 1499 1500 1500 1500 1500 1500 1500 1500 1500 1500 1500 1500 1500 1500 1500 1500 1500 1500 1500 1500 1500 1500 1500 1500 1500 1500 1500 1501 1501 1501 1501 1501 1501 1501 1501 1501 1501
1491 1492 1492 1492 1493 1493 1493 1493 1494 1494 1494 1494 1494 1495 1495 1495 1496 1496 1496 1496 1497 1497 1497 1497 1497 1497 1497 1497 1497 1498 1498 1498 1498 1498 1498 1498 1498 1499 1499 1499 1499 1499 1499 1499 1499 1499 1499 1499 1499 1499 1499 1500 1500 1500 1500 1500 1500 1500 1500 1500 1500 1500 1500 1500 1500 1500 1500 1500 1500
1490 1490 1491 1491 1491 1491 1491 1492 1492 1493 1493 1493 1493 1493 1493 1494 1494 1494 1494 1495 1495 1495 1495 1495 1495 1495 1495 1496 1496 1496 1496 1497 1497 1497 1497 1498 1498 1498 1498 1498 1498 1498 1498 1498 1498 1498 1499 1499 1499 1499 1499 1499 1499 1499 1499 1499 1499 1499 1499 1499 1499 1499 1499 1499 1499 1499 1499 1500 1500
1489 1489 1489 1489 1490 1490 1490 1490 1491 1491 1491 1491 1491 1492 1492 1492 1493 1493 1493 1493 1493 1493 1494 1494 1494 1494 1494 1494 1494 1495 1495 1495 1495 1496 1496 1497 1497 1497 1498 1498 1498 1498 1498 1498 1498 1498 1498 1498 1498 1498 1498 1498 1498 1498 1499 1499 1499 1499 1499 1499 1499 1499 1499 1499 1499 1499 1499 1499 1499
1488 1488 1488 1488 1488 1488 1489 1489 1489 1489 1489 1490 1490 1490 1490 1491 1491 1491 1491 1492 1492 1492 1492 1492 1492 1493 1493 1493 1493 1493 1494 1494 1494 1495 1495 1496 1496 1497 1497 1497 1497 1497 1497 1497 1497 1498 1498 1498 1498 1498 1498 1498 1498 1498 1498 1498 1498 1498 1498 1498 1498 1498 1498 1498 1498 1499 1499 1499 1499
1487 1487 1487 1487 1487 1487 1488 1488 1488 1488 1488 1488 1488 1489 1489 1489 1489 1490 1490 1490 1490 1490 1491 1491 1491 1491 1491 1492 1492 1493 1493 1493 1494 1494 1495 1495 1496 1496 1496 1496 1496 1496 1496 1497 1497 1497 1497 1497 1497 1497 1497 1498 1498 1498 1498 1498 1498 1498 1498 1498 1498 1498 1498 1498 1498 1499 1499 1499 1499
1486 1486 1486 1486 1486 1486 1486 1487 1487 1487 1487 1487 1487 1487 1488 1488 1488 1488 1488 1488 1489 1489 1489 1489 1490 1490 1490 1491 1491 1492 1492 1493 1493 1494 1494 1495 1495 1495 1495 1495 1496 1496 1496 1496 1496 1497 1497 1497 1497 1497 1497 1497 1497 1497 1497 1497 1497 1497 1497 1497 1497 1498 1498 1498 1498 1498 1498 1499 1499
1484 1485 1485 1485 1485 1485 1485 1486 1486 1486 1486 1486 1486 1486 1486 1487 1487 1487 1487 1487 1488 1488 1488 1489 1489 1489 1490 1490 1491 1492 1492 1493 1493 1493 1494 1494 1494 1494 1495 1495 1495 1495 1495 1496 1496 1496 1496 1496 1496 1496 1496 1496 1496 1496 1496 1496 1497 1497 1497 1497 1497 1498 1498 1498 1498 1498 1498 1498 1498
1484 1484 1484 1484 1484 1484 1485 1485 1485 1485 1485 1485 1485 1485 1486 1486 1486 1486 1486 1487 1487 1487 1488 1488 1489 1489 1490 1490 1491 1491 1492 1492 1493 1493 1493 1493 1494 1494 1494 1494 1495 1495 1495 1495 1495 1495 1496 1496 1496 1496 1496 1496 1496 1496 1496 1496 1496 1497 1497 1497 1497 1498 1498 1498 1498 1498 1498 1498 1498
1483 1483 1483 1483 1483 1484 1484 1484 1484 1484 1485 1485 1485 1485 1485 1485 1485 1486 1486 1486 1487 1487 1488 1488 1488 1489 1489 1490 1490 1491 1492 1492 1492 1493 1493 1493 1493 1493 1494 1494 1494 1494 1494 1495 1495 1495 1495 1495 1496 1496 1496 1496 1496 1496 1496 1496 1497 1497 1497 1497 1497 1497 1497 1497 1497 1497 1497 1497 1497
1482 1482 1483 1483 1483 1483 1483 1484 1484 1484 1484 1484 1484 1484 1485 1485 1485 1485 1486 1486 1486 1487 1487 1488 1488 1489 1489 1490 1490 1491 1491 1492 1492 1492 1493 1493 1493 1493 1493 1493 1494 1494 1494 1494 1495 1495 1495 1495 1495 1495 1495 1495 1496 1496 1496 1497 1497 1497 1497 1497 1497 1497 1497 1497 1497 1497 1497 1497 1497
1482 1482 1482 1482 1483 1483 1483 1483 1484 1484 1484 1484 1484 1484 1484 1484 1485 1485 1486 1486 1486 1487 1488 1488 1488 1489 1489 1490 1490 1491 1491 1491 1492 1492 1492 1493 1493 1493 1493 1493 1493 1494 1494 1494 1494 1495 1495 1495 1495 1495 1495 1496 1496 1496 1496 1497 1497 1497 1497 1497 1496 1496 1496 1496 1496 1496 1496 1496 1496
1481 1481 1482 1482 1482 1483 1483 1483 1483 1483 1484 1484 1484 1484 1484 1484 1485 1485 1486 1486 1486 1487 1487 1488 1488 1489 1489 1490 1490 1490 1491 1491 1491 1492 1492 1492 1493 1493 1493 1493 1493 1494 1494 1494 1494 1494 1495 1495 1495 1495 1496 1496 1496 1496 1496 1496 1496 1496 1496 1496 1496 1496 1496 1496 1496 1496 1496 1495 1495
1480 1481 1481 1482 1482 1482 1483 1483 1483 1483 1483 1484 1484 1484 1484 1484 1485 1485 1486 1486 1487 1487 1488 1488 1488 1489 1489 1490 1490 1490 1491 1491 1491 1492 1492 1492 1493 1493 1493 1493 1493 1494 1494 1494 1494 1495 1495 1495 1496 1496 1496 1496 1496 1496 1496 1496 1496 1496 1495 1495 1495 1495 1495 1495 1495 1495 1495 1495 1495
1480 1480 1481 1481 1482 1482 1482 1483 1483 1483 1483 1483 1483 1484 1484 1484 1484 1485 1486 1486 1487 1487 1488 1488 1488 1489 1489 1490 1490 1490 1491 1491 1491 1492 1492 1492 1493 1493 1493 1493 1493 1494 1494 1494 1495 1495 1495 1496 1496 1496 1496 1496 1496 1496 1495 1495 1495 1495 1495 1495 1495 1495 1495 1495 1495 1495 1494 1494 1494
1479 1480 1480 1480 1481 1481 1482 1482 1483 1483 1483 1483 1483 1484 1484 1484 1485 1485 1486 1486 1487 1487 1488 1488 1488 1489 1489 1490 1490 1490 1491 1491 1491 1492 1492 1492 1493 1493 1493 1493 1493 1494 1494 1494 1495 1495 1496 1496 1496 1496 1496 1496 1495 1495 1495 1495 1495 1495 1495 1495 1495 1495 1494 1494 1494 1494 1494 1493 1493
1479 1479 1479 1480 1480 1481 1481 1482 1482 1483 1483 1483 1483 1483 1484 1484 1485 1485 1486 1486 1487 1487 1488 1488 1488 1489 1489 1490 1490 1490 1491 1491 1491 1492 1492 1493 1493 1493 1493 1493 1494 1494 1494 1495 1495 1495 1495 1496 1496 1495 1495 1495 1495 1495 1495 1495 1494 1494 1494 1494 1494 1494 1494 1493 1493 1493 1493 1493 1493
1478 1479 1479 1479 1480 1480 1481 1481 1482 1482 1483 1483 1483 1483 1484 1484 1485 1485 1486 1486 1487 1487 1488 1488 1488 1489 1489 1490 1490 1490 1491 1491 1492 1492 1492 1492 1493 1493 1493 1494 1494 1494 1494 1495 1495 1495 1495 1495 1495 1495 1495 1495 1494 1494 1494 1494 1494 1494 1494 1494 1493 1493 1493 1493 1493 1493 1492 1492 1492
1478 1478 1478 1479 1479 1480 1480 1481 1481 1482 1482 1483 1483 1483 1484 1484 1485 1485 1486 1486 1487 1487 1488 1488 1489 1489 1489 1490 1490 1491 1491 1491 1492 1492 1492 1492 1493 1493 1493 1494 1494 1494 1495 1495 1495 1495 1495 1495 1495 1494 1494 1494 1494 1494 1494 1494 1493 1493 1493 1493 1493 1493 1493 1492 1492 1492 1492 1492 1491
1477 1478 1478 1478 1479 1479 1480 1480 1481 1481 1482 1482 1483 1483 1484 1484 1485 1485 1486 1486 1487 1487 1488 1488 1489 1489 1489 1490 1490 1491 1491 1491 1492 1492 1492 1493 1493 1493 1494 1494 1494 1494 1495 1495 1495 1495 1495 1494 1494 1494 1494 1494 1494 1494 1493 1493 1493 1493 1493 1493 1492 1492 1492 1492 1491 1491 1491 1491 1491
1477 1477 1477 1478 1478 1479 1479 1480 1480 1481 1481 1482 1483 1483 1484 1484 1485 1485 1486 1486 1487 1487 1488 1488 1489 1489 1490 1490 1490 1491 1491 1491 1492 1492 1492 1493 1493 1493 1494 1494 1494 1494 1494 1495 1494 1494 1494 1494 1494 1494 1494 1493 1493 1493 1493 1493 1493 1492 1492 1492 1492 1492 1491 1491 1491 1491 1490 1490 1490
1476 1477 1477 1478 1478 1478 1479 1479 1480 1480 1481 1482 1482 1483 1483 1484 1485 1485 1486 1486 1487 1487 1488 1488 1489 1489 1490 1490 1490 1491 1491 1491 1492 1492 1492 1493 1493 1493 1494 1494 1494 1494 1494 1494 1494 1494 1494 1494 1494 1493 1493 1493 1493 1493 1493 1492 1492 1492 1492 1492 1491 1491 1491 1491 1490 1490 1490 1490 1489
Wind_Speed
20 20 20 20 20 20 20 19 19 18 17 16 16 15 15 15 15 15 15 16 16 16 16 16 16 16 16 16 16 15 14 13 13 12 12 13 13 13 14 14 13 13 14 15 16 17 17 15 13 12 13 14 14 14 13 13 12 11 10 12 13 14 15 16 16 17 18 19 19
19 19 19 19 19 19 19 18 18 17 16 16 15 15 15 15 14 14 14 14 14 14 14 14 14 14 14 14 14 13 13 12 12 11 11 12 12 12 13 13 13 13 14 16 17 17 15 12 11 12 13 13 14 14 14 12 10 10 11 13 15 15 16 15 16 17 18 19 19
18 18 18 18 18 17 17 17 17 16 16 15 15 14 14 14 14 13 13 13 13 13 13 13 13 13 12 12 12 12 11 11 11 11 11 11 11 12 12 13 13 14 15 16 16 14 12 12 12 14 14 13 13 12 11 10 10 11 13 14 16 16 16 15 16 16 17 17 17
17 17 17 17 17 16 16 16 16 16 15 15 14 14 13 13 13 13 12 12 12 12 12 12 12 11 11 11 11 11 11 10 10 10 10 10 11 11 12 12 13 14 14 13 13 13 13 14 15 15 14 11 10 9 9 10 11 13 14 15 16 16 15 15 15 16 17 17 17
17 17 16 16 16 16 16 15 15 15 15 14 14 13 13 13 12 12 12 12 12 11 11 11 11 11 11 10 10 10 10 9 9 9 9 10 10 11 11 12 13 13 13 12 12 13 14 16 16 14 12 10 10 9 10 11 12 14 16 18 17 16 15 14 15 16 16 17 18
16 16 16 15 15 15 14 14 14 14 14 13 13 13 13 12 12 11 11 11 11 11 11 10 10 10 10 10 9 9 8 8 8 8 8 9 9 10 10 11 12 12 12 12 12 13 15 15 14 13 12 12 12 11 12 13 15 17 18 20 19 17 15 15 15 16 17 18 19
16 16 15 15 14 14 13 13 12 12 12 13 13 13 12 11 11 11 11 10 10 10 10 9 9 9 9 8 8 8 7 6 7 7 8 8 8 9 10 11 13 13 12 12 13 14 15 15 14 14 14 14 14 13 14 15 16 17 18 19 18 17 16 16 16 17 18 19 19
16 15 15 14 13 13 12 12 12 12 12 12 12 12 11 11 10 10 10 10 10 9 9 9 8 8 7 7 7 6 6 6 6 7 7 7 8 9 10 12 12 12 11 12 13 13 14 14 13 13 12 12 13 13 14 14 14 15 16 17 17 17 17 17 18 18 18 19 19
16 15 14 14 13 12 12 12 11 11 12 12 11 11 11 10 10 10 9 9 9 9 8 8 7 6 5 5 4 4 4 4 5 6 6 6 7 8 8 9 9 9 9 10 10 10 10 10 10 11 11 11 12 13 14 14 15 16 17 18 18 18 18 18 19 19 19 19 18
16 15 14 13 13 12 12 12 12 12 12 12 12 11 11 10 10 10 10 9 9 9 9 8 8 7 6 6 6 5 5 6 6 7 7 7 7 7 8 8 8 9 10 11 11 12 12 12 13 14 15 16 16 17 17 17 18 18 18 19 19 19 19 19 20 19 19 19 18
16 15 14 14 13 13 12 12 12 12 13 13 13 12 12 11 11 11 10 10 10 10 10 9 9 9 8 8 8 8 8 8 8 9 9 9 9 9 10 10 11 12 13 14 15 16 16 15 15 16 17 17 18 18 18 18 18 18 18 18 19 19 19 19 19 18 18 18 17
17 16 15 14 14 14 13 13 13 13 13 13 13 13 13 13 12 12 12 11 11 11 11 11 10 10 10 10 10 10 10 10 10 11 11 11 12 12 12 12 12 13 14 15 16 16 16 17 17 17 18 19 19 19 19 18 18 18 18 18 17 17 17 17 16 16 16 16 16
17 16 16 15 15 15 14 14 14 14 14 14 14 14 14 14 14 13 13 13 12 12 12 12 12 11 11 11 11 12 12 12 12 13 13 13 14 14 14 14 14 15 15 16 16 17 17 18 19 19 20 21 21 21 20 20 19 19 18 17 16 16 15 15 14 14 14 14 15
17 17 16 16 16 16 15 15 15 15 15 15 15 15 15 15 15 15 14 14 14 13 13 13 13 13 13 13 13 13 13 13 13 14 14 15 15 16 16 16 16 17 17 17 18 18 19 19 20 21 21 21 21 21 21 20 20 19 18 17 16 16 15 14 14 14 14 14 15
17 17 17 17 16 16 16 16 16 16 16 16 17 17 17 17 16 16 16 15 15 15 15 15 14 14 14 14 14 14 14 14 15 15 16 16 16 17 17 18 18 18 18 19 19 19 20 20 20 20 20 20 20 20 20 20 19 18 18 17 16 15 15 14 14 14 15 15 16
17 17 17 17 17 17 17 17 17 17 17 18 18 18 18 18 18 17 17 17 17 16 16 16 16 16 16 16 16 16 16 16 16 16 17 17 17 18 18 18 18 18 19 19 19 19 19 19 19 19 18 18 18 18 18 18 17 16 16 15 15 14 14 14 14 14 14 15 15
17 17 17 17 17 18 18 18 18 18 19 19 19 19 19 19 19 18 18 18 18 18 18 18 18 18 18 18 18 18 17 17 17 17 17 17 17 18 18 18 18 18 18 17 17 17 18 18 17 17 17 17 17 17 17 16 15 14 14 13 13 12 12 12 12 12 13 13 14
17 17 18 18 18 18 18 19 19 19 20 20 20 20 20 20 19 19 19 20 20 19 19 20 20 20 20 20 20 20 19 19 18 18 18 17 17 17 16 16 16 16 16 16 16 16 16 16 16 15 15 15 14 14 14 13 12 12 11 11 10 10 10 10 10 10 11 12 12
18 18 18 18 19 19 19 20 20 20 20 20 21 21 21 21 20 20 20 20 20 20 21 21 21 21 21 21 21 21 21 20 19 18 18 17 16 16 15 15 14 14 14 13 13 14 14 14 14 13 12 12 11 11 10 10 9 9 8 8 8 8 8 8 8 9 9 9 8
18 18 18 18 19 19 20 20 20 20 21 21 21 21 21 21 21 21 21 21 21 21 21 22 22 22 22 22 22 21 21 20 19 18 17 16 15 14 13 12 12 12 12 12 12 11 11 11 11 10 9 9 8 8 8 7 7 7 7 7 6 6 6 7 7 7 6 6 5
17 17 18 18 19 20 20 20 20 21 21 21 22 22 22 22 22 22 22 22 22 22 22 22 22 22 22 22 21 21 20 19 18 17 16 14 12 12 11 10 10 10 10 10 10 9 9 8 8 7 7 7 6 6 6 6 5 5 5 5 5 5 6 6 5 5 4 4 4
16 17 18 18 19 20 20 20 20 21 21 22 22 22 22 22 22 23 23 23 23 22 22 22 22 22 21 21 20 19 19 18 17 15 13 12 11 10 10 9 9 9 8 8 8 7 7 7 6 6 6 6 5 5 5 5 5 5 5 5 5 5 5 4 4 4 3 4 4
16 16 17 18 18 19 19 20 20 21 21 22 22 22 22 23 23 23 23 23 22 22 22 21 21 20 20 19 18 17 16 15 14 12 11 10 10 9 8 8 8 7 7 6 6 6 5 5 5 5 5 5 5 5 5 4 4 4 4 4 3 3 3 3 3 3 3 3 3
15 16 17 17 18 18 19 19 20 20 21 21 21 22 22 22 22 22 22 21 21 21 20 20 19 18 18 16 15 14 13 12 10 10 10 9 8 8 7 6 6 5 5 5 5 5 5 5 4 4 4 4 4 4 4 3 3 3 2 2 1 1 1 1 1 1 1 1 1
15 16 16 17 17 17 18 18 18 19 19 20 20 20 20 20 20 20 19 19 19 18 17 17 16 15 14 12 11 10 9 9 9 9 9 8 7 6 6 5 5 5 5 5 5 4 4 4 4 3 3 3 3 3 2 2 2 1 1 1 1 1 1 1 1 1 1 0 0
14 15 15 16 16 16 16 16 16 17 17 17 17 17 17 17 17 16 16 16 15 15 14 13 12 11 10 9 8 8 9 9 9 8 7 7 6 5 5 4 4 4 4 4 4 4 3 3 2 2 2 1 2 2 2 2 2 2 2 3 3 2 2 2 2 1 1 1 1
13 13 14 14 14 14 14 14 14 14 14 14 14 14 14 13 13 13 12 12 12 11 10 9 8 8 7 8 8 8 8 8 7 7 6 6 5 5 4 4 4 4 4 4 3 3 2 2 2 2 3 3 3 4 4 4 4 4 4 4 3 3 2 2 1 1 1 1 1
11 12 12 12 11 11 11 11 11 10 10 11 11 10 10 10 9 9 8 8 8 7 7 7 7 7 7 8 8 7 7 6 6 5 5 5 5 4 4 4 4 3 3 3 3 3 3 4 4 5 5 5 5 5 5 5 5 4 4 3 3 2 2 1 1 1 1 1 2
10 10 9 8 8 8 8 7 7 7 8 8 8 7 7 6 6 6 6 6 6 7 8 8 8 7 7 7 7 6 6 5 5 5 5 5 4 4 4 3 3 3 3 4 4 5 5 6 6 6 6 6 6 6 5 5 4 4 3 2 2 2 2 1 1 2 2 3 4
8 7 6 5 5 5 5 5 5 6 6 6 5 5 5 5 6 6 7 7 8 8 8 8 7 7 7 6 6 6 5 5 5 5 4 4 4 4 4 4 4 4 5 6 6 7 7 7 7 7 7 6 6 5 4 3 3 2 2 2 1 2 2 2 3 3 4 5 6
6 5 5 4 4 4 4 5 5 5 5 5 5 6 6 7 7 7 8 8 9 8 8 7 7 7 7 6 6 5 5 5 5 5 4 4 4 5 5 5 6 6 7 7 8 7 7 7 7 6 6 5 4 3 2 1 1 1 1 1 2 2 3 4 4 5 5 6 6
6 6 5 5 5 5 5 5 5 6 6 6 6 7 7 8 8 8 8 8 8 8 7 7 7 7 7 6 6 5 5 5 5 5 6 6 6 6 7 7 8 8 8 8 8 7 7 6 6 5 4 3 2 1 1 1 1 2 2 3 3 3 4 4 5 5 6 6 6
6 6 6 6 6 6 6 6 6 6 6 6 6 7 8 8 8 8 8 8 8 7 7 7 7 7 7 6 6 6 6 6 7 7 8 8 8 8 8 8 8 8 8 8 7 6 6 5 4 3 2 1 1 0 1 2 2 3 3 3 4 4 4 5 5 5 5 5 6
7 7 7 7 6 6 7 7 7 7 6 5 5 6 7 8 8 8 8 7 7 8 8 8 8 7 7 7 7 7 7 8 8 9 9 9 9 9 9 8 8 8 7 7 6 5 4 3 2 2 1 0 1 1 2 2 3 3 4 4 4 4 5 5 5 5 5 5 6
7 7 7 7 7 7 7 8 8 7 6 5 5 6 7 7 8 8 8 8 8 8 8 8 8 8 8 8 8 9 9 9 10 10 10 10 9 9 8 7 7 7 6 5 5 4 3 2 1 1 0 1 1 2 2 3 3 4 4 4 5 5 5 5 5 5 6 6 6
8 8 8 8 8 8 8 8 8 7 6 5 5 6 7 7 8 8 8 8 8 8 8 8 8 9 9 9 10 10 10 10 10 10 10 9 9 8 7 6 6 6 5 4 3 3 2 1 1 0 1 1 2 2 3 3 3 4 4 4 5 5 5 5 5 6 6 6 6
9 9 9 9 8 8 8 8 8 8 7 6 6 7 8 8 8 9 9 9 9 9 9 9 9 10 10 11 11 11 11 10 10 9 9 9 8 7 6 5 5 4 4 3 2 2 1 1 0 1 1 1 2 2 3 3 4 4 4 5 5 5 5 6 6 6 6 7 7
9 10 10 10 9 9 8 9 9 8 7 7 7 7 8 9 9 9 10 10 10 10 10 10 10 11 11 11 11 11 10 10 9 9 8 8 7 6 5 4 4 3 3 2 2 1 1 0 0 1 1 2 2 3 3 3 4 4 5 5 5 6 6 6 6 6 6 7 7
9 10 11 11 10 10 9 9 9 9 8 7 8 8 9 9 9 10 10 11 11 11 11 11 11 11 11 11 11 10 9 9 9 8 7 7 6 6 5 4 3 2 2 2 1 1 0 0 1 1 1 2 2 3 3 4 4 4 5 5 5 6 6 6 6 7 7 7 7
10 11 11 12 12 11 10 10 10 9 9 8 9 9 9 10 10 10 11 11 12 12 12 11 11 11 11 11 10 9 9 8 8 7 7 6 6 5 4 4 3 2 2 1 1 1 1 1 1 1 2 2 3 3 4 4 4 4 5 5 5 5 6 6 6 7 7 7 7
10 11 11 12 12 12 11 11 10 10 10 10 10 10 10 10 10 10 11 12 12 12 12 12 11 11 10 10 9 9 8 8 7 7 6 6 5 5 4 4 3 2 2 1 1 1 1 1 1 2 2 3 3 3 4 4 4 4 4 5 5 5 5 5 6 6 7 7 7
Wind_Direction
287 288 288 289 290 291 292 292 293 293 294 295 296 297 297 295 294 292 292 290 290 288 287 285 283 281 280 278 277 277 276 275 273 271 270 269 268 265 263 260 259 259 260 261 259 255 250 245 242 244 250 254 255 251 242 231 222 223 237 251 254 251 245 240 241 246 254 260 263
284 285 285 286 287 288 290 291 292 293 295 296 297 299 299 299 298 297 296 294 292 290 288 286 285 283 282 280 279 278 276 274 273 271 270 269 267 265 262 259 258 257 256 256 255 254 251 246 244 243 241 238 235 231 226 222 227 238 248 253 250 244 241 241 247 254 260 263 266
281 281 281 282 283 285 286 288 290 293 295 297 298 299 300 300 299 298 297 295 293 291 289 287 285 283 282 280 278 276 273 272 270 270 269 267 264 262 259 257 255 253 253 253 255 257 258 255 251 244 237 232 226 222 224 233 246 251 251 250 246 244 246 253 260 265 266 266 269
278 278 278 278 279 281 283 285 289 292 294 296 297 298 298 298 297 295 294 292 291 289 287 284 283 281 279 276 274 272 270 269 268 266 263 260 257 254 253 251 251 250 250 252 258 262 262 255 246 239 234 232 229 230 239 249 252 250 246 245 245 248 253 259 263 264 266 269 273
276 275 276 276 277 279 281 284 288 290 292 293 294 294 294 293 292 291 289 287 286 284 283 282 281 279 276 274 272 270 270 268 266 261 258 254 250 248 247 246 247 249 253 258 262 260 253 244 235 230 231 237 239 241 245 247 249 247 244 243 246 250 255 258 260 263 267 271 273
274 274 275 275 276 278 281 283 286 288 289 289 289 289 288 287 287 285 284 282 282 281 281 280 279 277 275 273 272 271 271 270 267 264 262 260 258 255 253 251 250 250 253 258 259 253 244 237 231 230 233 236 237 240 242 241 244 243 241 240 242 245 250 257 260 264 269 271 272
273 273 273 274 275 276 278 281 282 283 283 283 282 281 281 281 281 280 279 279 278 278 278 278 277 277 277 278 276 274 273 274 274 275 275 272 267 262 259 255 249 246 246 248 247 244 240 236 233 231 229 227 226 230 235 237 237 235 234 237 242 245 249 257 264 269 272 273 274
271 270 271 271 272 272 274 275 275 275 274 273 272 272 273 274 275 274 274 274 273 273 275 276 276 278 281 282 279 275 272 271 272 270 263 254 249 247 245 241 237 234 232 233 233 232 229 226 224 225 225 225 226 229 236 242 241 238 239 245 251 255 258 262 267 271 273 274 275
268 267 267 267 267 267 267 268 267 266 264 264 263 264 265 266 266 266 266 266 265 267 269 270 270 272 270 264 261 257 254 251 250 247 241 232 230 231 231 231 232 234 235 236 237 236 234 235 241 249 255 257 255 256 258 260 260 257 256 257 259 260 262 265 268 269 270 270 269
265 264 264 263 263 262 261 261 260 259 258 257 257 257 258 259 259 260 260 259 261 262 262 262 262 260 256 251 249 246 244 242 243 247 250 251 247 245 245 246 250 255 258 260 262 264 266 269 272 274 274 274 273 272 271 271 268 266 263 262 262 263 265 267 269 269 268 266 265
263 262 261 260 259 258 257 257 256 256 255 254 254 254 254 255 256 257 257 258 259 260 260 260 260 259 257 254 254 253 252 250 250 252 255 258 258 256 254 253 254 255 258 260 262 265 268 271 272 272 272 272 272 272 271 270 269 268 268 267 267 268 269 269 270 270 269 267 264
262 261 260 258 257 256 255 255 255 254 254 254 254 254 254 255 255 257 258 259 261 261 262 262 262 261 259 258 257 257 257 257 257 257 257 259 260 260 259 257 256 257 257 258 260 263 265 267 268 269 270 271 271 271 271 271 271 272 271 271 270 269 269 269 269 269 269 268 265
261 260 258 257 256 255 254 254 254 255 255 255 255 255 255 256 256 258 260 261 262 263 263 263 263 262 261 261 261 261 261 262 263 263 262 263 263 263 263 263 263 263 263 264 265 266 266 267 268 269 270 271 272 272 272 273 273 273 272 270 268 266 265 264 265 265 266 266 264
260 258 257 256 255 254 253 254 254 255 255 255 255 255 255 256 257 259 261 263 264 264 264 264 264 264 264 264 264 264 265 266 267 268 268 269 268 268 268 268 268 268 269 269 269 269 269 269 269 270 271 272 273 274 274 274 273 272 271 268 266 264 262 261 261 262 263 263 262
259 257 255 255 253 253 253 253 253 254 254 255 255 255 255 256 258 259 261 263 264 265 265 265 265 266 266 266 266 267 268 270 271 272 273 274 274 274 274 274 274 273 273 273 272 271 271 271 271 271 272 273 273 273 273 272 271 269 266 264 262 261 260 259 260 261 263 263 264
258 256 254 253 252 252 252 252 252 253 253 254 254 254 255 256 258 260 262 263 264 266 266 267 267 268 268 269 269 269 271 272 274 275 276 277 278 278 278 278 277 276 274 273 273 272 272 272 273 273 273 272 271 270 268 267 265 263 260 259 258 258 259 260 262 265 267 269 270
256 254 253 252 251 251 250 251 251 252 252 253 254 254 255 256 258 260 262 263 265 266 267 268 269 270 271 272 272 272 273 274 276 277 278 280 280 280 279 278 276 274 273 272 272 272 273 274 274 274 272 269 267 264 262 261 260 258 257 258 259 261 263 265 268 270 272 274 275
255 253 252 251 250 250 250 250 251 251 252 253 254 256 256 257 259 260 262 263 265 266 267 269 270 271 272 273 274 275 275 276 277 279 280 281 280 278 276 274 272 271 271 272 273 273 274 274 273 272 269 265 262 260 259 258 257 257 258 260 262 264 266 270 272 274 275 276 277
254 253 253 252 252 251 251 251 251 252 253 255 256 257 258 259 260 261 262 264 265 267 268 269 270 271 272 273 275 276 277 277 278 279 279 278 276 273 270 268 268 269 270 271 272 272 272 271 269 267 264 261 259 258 258 258 258 259 261 262 264 266 269 273 275 278 280 283 285
255 254 254 254 254 253 253 253 253 254 255 256 257 258 260 261 261 263 264 265 266 267 268 269 270 271 272 273 274 275 276 277 278 278 276 272 267 263 261 262 264 267 269 270 269 268 267 265 264 262 259 256 256 257 259 260 260 261 262 263 265 268 272 275 278 283 288 294 297
256 256 255 255 255 255 255 255 255 256 257 258 259 260 262 263 264 264 265 266 267 268 269 270 271 272 273 273 274 275 275 276 275 272 268 261 255 252 253 257 261 264 265 266 265 263 262 261 259 256 255 254 254 255 259 261 261 262 263 264 267 270 272 274 279 285 291 296 296
258 256 256 256 256 257 258 258 258 259 259 260 261 262 264 265 265 266 267 268 269 270 270 271 272 272 273 273 274 274 274 272 269 263 254 246 243 245 250 255 258 261 262 262 262 261 261 259 257 256 255 254 253 254 255 257 260 263 265 267 269 270 273 276 282 288 292 291 288
259 259 258 258 258 259 259 260 260 261 262 263 263 264 265 266 267 267 268 269 270 270 271 271 271 272 272 272 272 271 269 265 257 247 237 233 235 240 248 253 256 258 260 262 262 261 260 259 258 256 254 253 253 251 251 252 255 260 264 269 271 273 278 284 291 293 291 285 280
262 261 261 260 260 260 261 262 262 263 264 264 265 266 266 267 268 269 269 270 270 270 271 271 271 271 270 269 267 264 257 248 234 225 222 226 232 239 246 250 254 257 259 260 260 259 257 256 257 255 254 250 248 246 245 244 246 250 258 264 277 289 301 310 308 300 293 280 272
261 261 261 261 261 262 263 263 264 265 265 265 265 266 267 267 268 268 269 269 269 269 269 269 268 267 265 261 255 245 234 221 211 210 215 223 232 239 245 250 254 256 256 256 255 254 252 251 249 249 248 243 238 233 226 220 211 202 175 121 84 74 69 74 84 96 118 146 172
259 259 260 260 262 262 263 263 264 264 265 265 265 266 266 267 267 268 268 268 267 267 265 263 260 254 247 237 226 215 207 203 204 208 216 226 235 242 247 249 250 251 251 250 247 244 241 236 229 222 212 198 184 164 150 137 123 113 103 96 90 89 89 92 96 105 122 138 161
256 257 258 259 261 261 261 261 261 261 262 263 264 265 265 265 265 265 263 262 261 258 254 246 234 222 212 203 196 192 192 197 204 211 220 230 237 241 241 240 239 239 238 235 227 215 197 174 155 143 135 127 120 114 108 103 99 97 95 93 91 90 92 95 97 103 130 189 216
254 255 256 258 257 255 254 254 254 255 257 259 260 261 261 260 257 253 249 245 240 232 219 206 196 191 187 184 183 184 188 194 202 211 220 227 231 231 227 224 221 219 214 201 180 156 140 130 124 119 114 110 105 100 96 92 90 90 89 87 85 80 76 65 49 20 314 271 270
251 252 252 251 247 243 242 242 243 247 251 252 253 251 246 238 229 220 212 204 196 187 180 176 176 176 174 174 178 182 187 192 199 207 215 221 221 217 210 203 195 184 171 154 139 130 124 119 115 110 106 101 96 93 90 87 84 81 77 70 61 48 28 4 342 320 302 292 288
242 240 236 228 223 219 218 222 228 234 237 236 228 216 203 192 186 181 176 172 168 165 164 165 165 165 166 168 174 178 184 190 195 200 203 204 199 190 180 170 160 149 140 133 126 121 117 113 107 102 98 95 92 90 89 86 80 72 58 37 16 353 334 321 310 303 296 292 292
223 213 202 194 191 192 198 205 210 212 210 202 192 181 174 169 166 165 163 161 160 160 161 161 159 160 163 167 169 172 177 183 185 184 180 173 162 153 146 141 137 133 128 124 120 115 111 105 101 97 94 93 93 93 90 83 62 28 3 344 328 320 313 307 303 298 294 292 291
207 198 190 183 181 186 194 199 199 194 189 183 178 172 167 163 163 161 159 159 158 159 158 158 159 160 162 163 165 166 169 169 165 160 152 143 135 131 129 129 127 125 122 119 114 110 105 102 99 96 96 95 96 88 61 360 340 331 325 321 314 310 306 302 298 295 293 291 290
204 199 194 188 187 192 198 200 197 190 183 178 176 172 168 164 161 159 157 156 157 157 156 156 156 156 155 156 156 156 155 153 149 142 136 130 125 123 123 123 123 121 118 114 110 106 104 103 103 103 103 100 87 345 327 325 321 319 317 312 307 303 299 296 292 291 290 292 294
205 203 200 195 195 198 202 202 198 190 182 177 178 175 169 163 160 156 155 155 156 157 155 154 153 151 150 149 148 145 144 143 140 135 130 126 124 122 122 122 121 118 114 111 110 109 109 110 111 112 110 81 321 318 319 318 315 310 305 301 297 295 293 292 292 293 295 298 302
207 203 199 197 198 200 201 200 196 190 184 182 182 176 169 162 157 154 153 154 156 156 154 153 152 151 148 146 143 140 138 137 135 133 130 127 125 123 123 122 119 116 114 112 113 115 116 117 117 112 360 325 319 318 316 312 305 301 297 294 293 293 295 297 299 302 304 307 310
209 203 196 193 194 196 196 195 192 190 188 188 185 176 169 161 156 153 153 154 154 153 151 150 149 147 144 141 139 137 136 135 134 133 130 128 124 123 122 121 118 116 114 115 116 116 116 113 98 360 328 322 320 316 312 307 303 301 299 298 300 303 306 309 311 312 313 315 316
211 204 195 189 188 188 190 190 191 192 193 191 184 174 167 161 157 156 155 154 151 150 148 146 145 143 140 138 136 135 136 135 134 132 129 125 122 121 121 119 118 116 116 115 115 114 113 98 12 338 327 323 318 314 314 312 311 311 311 313 315 317 319 319 319 319 319 319 319
211 203 194 186 183 184 187 189 191 193 193 187 177 169 165 162 160 159 157 154 149 147 146 145 144 142 139 137 137 136 136 135 133 130 126 123 121 121 121 121 118 117 117 118 118 119 118 81 345 334 334 330 328 325 325 326 325 326 327 327 328 327 326 325 323 323 321 320 319
207 199 191 185 182 182 185 189 192 192 188 179 171 167 165 163 163 161 159 154 149 146 145 145 144 142 140 139 138 137 136 134 131 128 125 123 122 124 125 126 127 125 125 126 127 130 100 35 4 352 346 346 343 341 340 340 338 338 337 335 333 331 328 328 326 325 322 320 318
200 194 189 185 182 182 184 188 191 188 180 172 168 167 166 165 164 163 159 155 150 147 146 146 144 143 141 140 139 137 136 133 130 127 125 125 127 129 133 138 142 144 144 139 134 112 65 30 15 10 3 360 357 354 351 348 346 344 341 339 334 331 329 328 327 326 324 321 319
192 189 186 184 182 181 183 187 187 181 173 167 166 165 166 167 165 162 159 154 151 148 146 146 146 145 143 142 141 139 137 134 132 130 129 132 134 138 144 150 154 158 156 144 125 95 69 44 29 22 15 9 4 358 355 352 351 349 346 343 339 335 332 329 328 327 326 324 321